Location: Lawrence Hall of Science
(37.8785°N, 122.2415°W)
Time: 15:39:46
(UTC-07:00)

Daily predictions for brighter satellites

Satellite Brightness Start Highest point End
(mag) Time Altitude Azimuth Time Altitude Azimuth Time Altitude Azimuth
Meteor 2-16 Rocket 4.4 19:58:04 10° S 20:04:08 81° E 20:10:14 10° N
NOSS 3-4 (A) 4.2 19:58:37 10° NW 20:05:41 73° WSW 20:13:10 10° SSE
NOSS 3-4 (C) 4.2 19:58:45 10° NW 20:05:50 74° WSW 20:13:18 10° SSE
Cosmos 1500 4.2 20:11:17 10° SSE 20:14:26 26° E 20:17:36 10° NNE
OTV 4 2.5 20:13:46 10° WSW 20:16:01 20° SSW 20:18:16 10° SSE
Lacrosse 5 2.5 20:11:44 10° NNW 20:16:32 41° NE 20:21:09 11° ESE
Iridium 4 Rocket 4.0 20:13:55 10° NNE 20:18:15 32° E 20:22:14 10° SE
Cosmos 1975 3.0 20:14:50 10° S 20:18:48 51° E 20:22:48 10° NNE
CZ-2D R/B 3.8 20:16:15 10° SE 20:19:52 39° ENE 20:23:31 10° N
Spot 2 Rocket 3.8 20:16:41 10° S 20:21:45 71° WSW 20:26:50 10° NNW
Lacrosse 5 rocket 1.8 20:18:38 10° NW 20:22:14 50° SW 20:25:44 10° SSE
Cosmos 2227 Rocket 2.5 20:18:16 10° NNW 20:23:54 71° WSW 20:29:30 10° SSE
Cosmos 2084 3.5 20:20:16 10° NNW 20:24:19 61° NE 20:28:31 10° SE
Cosmos 2322 Rocket 3.8 20:25:05 12° ESE 20:26:02 12° E 20:28:08 10° ENE
USA 186 2.3 20:25:30 10° SE 20:28:08 31° ENE 20:30:40 10° N
EO 1 Delta rocket 4.1 20:26:49 10° NNE 20:31:42 68° E 20:37:34 10° S
Envisat 4.5 20:29:51 13° E 20:32:31 19° ENE 20:36:01 10° NNE
Cosmos 1937 Rocket 4.1 20:29:08 10° N 20:34:05 40° ENE 20:38:17 14° SE
Cosmos 1626 Rocket 3.5 20:32:02 10° N 20:36:26 75° E 20:40:44 10° SSE
CZ-4 DEB 4.4 20:36:08 16° E 20:36:45 17° ENE 20:38:54 10° NNE
Cosmos 220 Rocket 4.0 20:32:59 10° NNW 20:37:13 81° WSW 20:41:25 10° SSE
Cosmos 2297 Rocket 2.4 20:32:56 10° NNW 20:38:36 75° WSW 20:44:13 10° SSE
Cosmos 2173 Rocket 4.4 20:33:47 10° SSE 20:39:38 41° E 20:45:29 10° NNE
Cosmos 1515 3.7 20:37:05 10° N 20:40:53 59° E 20:44:39 10° SSE
Cosmos 2082 4.5 20:36:01 10° NNW 20:41:28 53° WSW 20:46:54 10° S
ALOS 2.2 20:37:35 10° SSE 20:42:15 88° ENE 20:46:57 10° NNW
Cosmos 2298 Rocket 4.0 20:37:47 10° NNW 20:43:07 75° ENE 20:48:26 10° SSE
Cosmos 1605 Rocket 4.4 20:40:18 10° SSW 20:46:36 67° W 20:52:49 10° N
Cosmos 1602 Rocket 3.6 20:42:42 10° N 20:47:10 82° W 20:51:33 10° S
OAO 2 Rocket 3.5 20:43:28 10° W 20:48:22 61° S 20:51:31 22° ESE
ERS-1 Rocket 3.6 20:48:48 20° ESE 20:51:40 36° ENE 20:56:13 10° N
Tiangong 1 1.2 20:49:19 10° WNW 20:52:25 64° NNE 20:53:36 33° E
Cosmos 2100 Rocket 4.0 20:52:07 10° S 20:58:18 64° E 21:04:27 10° NNE
Cosmos 1743 2.8 20:55:20 10° S 20:59:03 52° E 21:02:52 10° NNE
Cosmos 1939 Rocket 3.8 20:59:13 28° E 21:00:17 32° ENE 21:04:00 10° N
Cosmos 1763 Rocket 3.4 20:58:56 10° S 21:03:56 60° ESE 21:08:55 10° NNE
Cosmos 2150 Rocket 4.1 21:02:50 10° NNW 21:07:59 74° WSW 21:12:23 14° S
Cosmos 1697 Rocket 3.4 21:04:24 10° SW 21:09:57 56° WNW 21:15:30 10° NNE
Cosmos 2061 Rocket 3.9 21:08:46 10° S 21:15:04 79° E 21:21:20 10° N
Cosmos 1898 Rocket 4.1 21:12:41 10° NNW 21:17:51 56° WSW 21:22:23 13° S
Cosmos 1606 Rocket 3.5 21:15:29 25° S 21:17:58 64° E 21:22:23 10° NNE
Cosmos 2058 Rocket 3.5 21:18:12 39° E 21:18:16 39° E 21:22:29 10° NNE
Cosmos 1066 Rocket 4.4 21:13:36 10° NNW 21:19:19 73° W 21:25:01 10° S
Cosmos 1459 Rocket 3.9 21:15:19 10° S 21:21:23 89° WNW 21:27:31 10° N
Cosmos 1125 Rocket 4.3 21:19:21 10° N 21:24:03 33° ENE 21:24:35 32° ENE
SL-16 R/B 2.5 21:23:20 38° SE 21:24:10 40° ESE 21:29:25 10° NE
RESURS DK-1 3.1 21:24:24 10° NW 21:28:26 50° WSW 21:30:05 30° SSW
Cosmos 2098 Rocket 4.0 21:24:19 21° SSE 21:28:48 56° E 21:34:18 10° NNE
Cosmos 841 Rocket 3.4 21:24:03 10° SSW 21:29:17 89° WNW 21:34:32 10° NNE
Cosmos 1725 Rocket 4.1 21:27:36 35° SE 21:29:45 49° E 21:35:44 10° NNE
ASTEX 1 3.7 21:26:35 10° NNE 21:31:23 46° E 21:31:23 46° E
Cosmos 546 4.5 21:28:00 10° SW 21:31:52 80° SSE 21:31:52 80° SSE
Cosmos 1980 Rocket 2.8 21:28:53 10° SW 21:34:27 58° WNW 21:40:05 10° NNE
YAOGAN 6 4.5 21:39:58 22° NNE 21:39:58 22° NNE 21:41:39 10° N
Cosmos 1666 3.4 21:39:39 44° NNE 21:39:39 44° NNE 21:42:21 10° N
Cosmos 1842 3.9 21:35:43 10° N 21:38:36 43° NNE 21:38:36 43° NNE
Cosmos 1726 Rocket 3.5 21:38:48 44° SSW 21:40:10 84° W 21:44:36 10° N
BREEZE-M TANK 2.5 21:36:42 10° WNW 21:44:58 83° NNE 21:45:18 74° E
Cosmos 2233 Rocket 4.4 21:51:25 43° ENE 21:51:25 43° ENE 21:56:45 10° NNE
Cosmos 1340 3.8 21:53:38 10° NNW 21:57:12 39° W 21:57:21 38° W
Lacrosse 5 3.2 21:54:57 10° WNW 21:59:21 30° WSW 22:00:22 28° SW
Cosmos 2263 Rocket 3.1 21:55:26 10° N 21:59:58 34° NE 21:59:58 34° NE
SPOT 5 2.9 22:06:18 78° NNW 22:06:18 78° NNW 22:10:45 10° NNW
Cosmos 2228 4.1 22:09:30 38° N 22:09:30 38° N 22:12:13 10° N
H-2A R/B 2.8 22:09:19 49° NW 22:09:19 49° NW 22:12:32 10° NNW
Cosmos 2322 Rocket 2.2 22:06:35 32° SSW 22:09:16 78° WNW 22:14:55 10° NNE
Envisat 3.7 22:10:04 41° SW 22:11:08 48° W 22:16:03 10° NNW
MetOp-A 4.1 22:14:48 82° WNW 22:14:48 82° WNW 22:20:03 10° NNW
Terra 3.9 22:21:30 17° NNE 22:21:30 17° NNE 22:22:59 10° NNE
USA 245 4.4 22:20:53 82° ENE 22:20:53 82° ENE 22:27:12 10° N
Meteor 2-5 Rocket 4.5 22:23:12 10° N 22:27:32 45° NNE 22:27:32 45° NNE
BREEZE-M DEB (TANK) 4.1 22:21:49 10° W 22:31:58 45° NNW 22:33:02 39° NNE
CZ-3C R/B 4.5 22:33:18 10° W 22:44:06 17° SW 22:46:24 15° SSW
H-2A R/B 3.6 22:46:46 27° N 22:46:46 27° N 22:49:03 10° N
Milstar 3 Cent rocket 4.5 22:27:44 10° W 22:45:30 42° SSW 22:47:21 40° S
ARGOS 4.3 23:02:06 39° NW 23:02:06 39° NW 23:05:47 10° NNW
SL-16 R/B 4.0 23:04:57 16° WSW 23:08:21 27° WNW 23:13:10 10° N
USA 215 4.0 23:11:44 44° NNE 23:11:44 44° NNE 23:17:16 10° NW
Cosmos 2360 Rocket 4.0 23:21:58 25° N 23:21:58 25° N 23:24:22 10° NNE
Cosmos 2263 Rocket 4.3 23:39:32 10° NW 23:41:40 20° WNW 23:41:40 20° WNW
